sat.trackr.live / text

‹ back to catalog

STARLINK-34047

NORAD 63821 · 2025-092T

PAYLOAD ACTIVE UNKNOWN

§ Identity

Operator
Country
US
Launch date
2025-05-04
Launch site
AFETR
Launch vehicle
Mass (kg)
RCS (m²)

Purposes: comms

External: N2YO · Heavens-Above · Gunter

§ Orbital elements

Epoch: 2026-05-25T04:41:20.690304Z

Period
94.27 min
Inclination
43.0020°
Eccentricity
0.0001363
Mean motion
15.27581277 rev/d
Perigee alt
482.1 km
Apogee alt
484.0 km
Semi-major
6,861.2 km
B*
6.1501e-4
RAAN
100.6175°
Arg perigee
277.7361°
Mean anomaly
82.3335°
Rev number
6,036

§ Raw data

STARLINK-340471 63821U 25092T   26145.19537836  .00016700  00000+0  61501-3 0  99972 63821  43.0020 100.6175 0001363 277.7361  82.3335 15.27581277 60361

JSON: /api/v1/satellites/63821 · /tle

For live sub-satellite position, see the globe view (requires WebGL).

§ Visibility from observer

Set your observer location to see the next 7 days of passes ≥ 10°. The values pass through the URL so the page stays shareable.

No JS? Fill the form by hand. The geolocation button needs JavaScript.